Weather WX

World > North America > United States > Michigan

Garden Corners, Michigan Regional Weather

Lat: 45.89N, Lon: 86.54W
Wx Zone: MIZ013
Warning FLW WEATHER ALERT - (More Info. Click Here) Warning
Feedback

Garden Corners, MI Regional Weather

Expires:201906251800;;062032
ASUS43 KDTX 251710
RWRMI 
MICHIGAN HOURLY REGIONAL WEATHER ROUNDUP
NATIONAL WEATHER SERVICE DETROIT/PONTIAC MI
100 PM EDT TUE JUN 25 2019

NOTE: "FAIR" INDICATES FEW OR NO CLOUDS BELOW 12,000 FEET WITH NO
SIGNIFICANT WEATHER AND/OR OBSTRUCTION TO VISIBILITY.


MIZ004>006-011>014-085-251800-
CENTRAL UPPER MICHIGAN
  
CITY           SKY/WX    TMP DP  RH WIND       PRES   REMARKS
MANISTIQUE     FAIR      67  63  89 S13       29.67S                  
ESCANABA       FAIR      76  60  57 S13G20    29.68S                  
MENOMINEE      FAIR      77  59  53 W9G17     29.71F                  
SAWYER-GWINN   PTSUNNY   75  55  50 SW12G28   29.65S                  
$$

SKY/WX - Weather  TMP - Temperature  DP - Dew Point  RH - Relative Humidity
WIND - Wind Direction/Speed PRES - Barometric Pressure VSB - Visibility
WCI - Wind Chill Index E13G22 Wind - East Wind 13 mph/Gusts of 22 mph